• In Belarus
  • List of Countries
  • For 7 days
  • Water Temperature
  • Satellite Maps
  • Weather Map
  • Weather Widgets
  • user-avatar
    Login

    Hourly Weather Orsha

    Today, 20 March, Wednesday

    Time Temperature Precipitation Wind Pressure Humidity
    00:00 +1°C° 0 mm 3 mps 750 mmHg 82%
    01:00 0°C° 0 mm 3 mps 750 mmHg 84%
    02:00 -1°C° 0 mm 2 mps 751 mmHg 87%
    03:00 -1°C° 0 mm 2 mps 751 mmHg 89%
    04:00 -1°C° 0 mm 2 mps 751 mmHg 90%
    05:00 -1°C° 0 mm 2 mps 751 mmHg 92%
    06:00 -1°C° 0 mm 3 mps 751 mmHg 89%
    07:00 0°C° 0 mm 3 mps 752 mmHg 87%
    08:00 0°C° 0 mm 3 mps 752 mmHg 84%
    09:00 +1°C° 0 mm 3 mps 752 mmHg 78%
    10:00 +1°C° 0 mm 4 mps 752 mmHg 71%
    11:00 +1°C° 0 mm 4 mps 752 mmHg 65%
    12:00 +3°C° 0 mm 4 mps 753 mmHg 64%
    13:00 +3°C° 0 mm 4 mps 753 mmHg 63%
    14:00 +3°C° 0 mm 4 mps 753 mmHg 62%
    15:00 +1°C° 0 mm 4 mps 753 mmHg 62%
    16:00 +1°C° 0 mm 4 mps 753 mmHg 63%
    17:00 +1°C° 0 mm 4 mps 753 mmHg 64%
    18:00 0°C° 0 mm 4 mps 753 mmHg 66%
    19:00 +1°C° 0 mm 3 mps 753 mmHg 69%
    20:00 +2°C° 0 mm 2 mps 753 mmHg 71%
    21:00 +1°C° 0 mm 3 mps 753 mmHg 71%
    22:00 0°C° 0 mm 4 mps 752 mmHg 71%
    23:00 0°C° 0 mm 4 mps 752 mmHg 71%

    Tomorrow, 21 March, Thursday

    Time Temperature Precipitation Wind Pressure Humidity
    00:00 0°C° 0.1 mm 5 mps 751 mmHg 72%
    01:00 0°C° 0.1 mm 5 mps 751 mmHg 72%
    02:00 -1°C° 0.1 mm 6 mps 750 mmHg 73%
    03:00 -1°C° 0.3 mm 6 mps 750 mmHg 76%
    04:00 -1°C° 0.3 mm 6 mps 750 mmHg 79%
    05:00 -1°C° 0.3 mm 6 mps 749 mmHg 82%
    06:00 +1°C° 0 mm 6 mps 750 mmHg 84%
    07:00 +1°C° 0 mm 6 mps 750 mmHg 85%
    08:00 +1°C° 0 mm 5 mps 750 mmHg 87%
    09:00 +2°C° 0 mm 6 mps 751 mmHg 81%
    10:00 +3°C° 0 mm 6 mps 751 mmHg 74%
    11:00 +5°C° 0 mm 6 mps 751 mmHg 68%
    12:00 +5°C° 0 mm 6 mps 751 mmHg 64%
    13:00 +7°C° 0 mm 6 mps 751 mmHg 59%
    14:00 +8°C° 0 mm 6 mps 751 mmHg 54%
    15:00 +8°C° 0 mm 5 mps 751 mmHg 56%
    16:00 +7°C° 0 mm 4 mps 751 mmHg 58%
    17:00 +8°C° 0 mm 3 mps 751 mmHg 60%
    18:00 +7°C° 0 mm 3 mps 751 mmHg 65%
    19:00 +5°C° 0 mm 3 mps 751 mmHg 70%
    20:00 +4°C° 0 mm 3 mps 751 mmHg 75%
    21:00 +4°C° 0.1 mm 3 mps 750 mmHg 78%
    22:00 +4°C° 0.1 mm 3 mps 750 mmHg 82%
    23:00 +4°C° 0.1 mm 4 mps 750 mmHg 85%

    Day after tomorrow, 22 March, Friday

    Time Temperature Precipitation Wind Pressure Humidity
    00:00 +4°C° 0.4 mm 4 mps 749 mmHg 87%
    01:00 +4°C° 0.4 mm 4 mps 749 mmHg 90%
    02:00 +4°C° 0.4 mm 4 mps 748 mmHg 92%
    03:00 +5°C° 0.2 mm 5 mps 748 mmHg 92%
    04:00 +5°C° 0.2 mm 5 mps 747 mmHg 92%
    05:00 +5°C° 0.2 mm 6 mps 747 mmHg 92%
    06:00 +5°C° 0.5 mm 6 mps 747 mmHg 92%
    07:00 +5°C° 0.5 mm 6 mps 746 mmHg 91%
    08:00 +5°C° 0.5 mm 7 mps 746 mmHg 90%
    09:00 +6°C° 0.1 mm 7 mps 746 mmHg 87%
    10:00 +8°C° 0.1 mm 7 mps 747 mmHg 84%
    11:00 +7°C° 0.1 mm 8 mps 747 mmHg 80%
    12:00 +9°C° 0 mm 8 mps 747 mmHg 78%
    13:00 +9°C° 0 mm 8 mps 747 mmHg 76%
    14:00 +9°C° 0 mm 8 mps 747 mmHg 75%
    15:00 +9°C° 0 mm 8 mps 747 mmHg 75%
    16:00 +8°C° 0 mm 7 mps 747 mmHg 75%
    17:00 +8°C° 0 mm 7 mps 747 mmHg 75%
    18:00 +7°C° 0 mm 6 mps 747 mmHg 76%
    19:00 +5°C° 0 mm 6 mps 747 mmHg 78%
    20:00 +5°C° 0 mm 5 mps 748 mmHg 79%
    21:00 +5°C° 0 mm 5 mps 748 mmHg 80%
    22:00 +3°C° 0 mm 5 mps 748 mmHg 81%
    23:00 +3°C° 0 mm 4 mps 749 mmHg 81%

    23 March, Saturday

    Time Temperature Precipitation Wind Pressure Humidity
    00:00 +1°C° 0 mm 4 mps 749 mmHg 82%
    01:00 +1°C° 0 mm 4 mps 749 mmHg 82%
    02:00 +1°C° 0 mm 3 mps 750 mmHg 82%
    03:00 0°C° 0 mm 3 mps 750 mmHg 83%
    04:00 0°C° 0 mm 3 mps 750 mmHg 84%
    05:00 -1°C° 0 mm 3 mps 750 mmHg 85%
    06:00 +1°C° 0 mm 2 mps 750 mmHg 80%
    07:00 +2°C° 0 mm 2 mps 750 mmHg 75%
    08:00 +2°C° 0 mm 2 mps 750 mmHg 70%
    09:00 +4°C° 0 mm 2 mps 750 mmHg 63%
    10:00 +6°C° 0 mm 2 mps 749 mmHg 56%
    11:00 +7°C° 0 mm 3 mps 749 mmHg 49%
    12:00 +7°C° 0 mm 4 mps 748 mmHg 57%
    13:00 +7°C° 0 mm 5 mps 748 mmHg 65%
    14:00 +8°C° 0 mm 6 mps 747 mmHg 74%
    15:00 +7°C° 0 mm 6 mps 747 mmHg 78%
    16:00 +7°C° 0 mm 5 mps 746 mmHg 83%
    17:00 +7°C° 0 mm 5 mps 745 mmHg 88%
    18:00 +7°C° 0.1 mm 6 mps 745 mmHg 88%
    19:00 +7°C° 0.1 mm 6 mps 745 mmHg 89%
    20:00 +7°C° 0.1 mm 6 mps 744 mmHg 90%
    21:00 +7°C° 0.1 mm 6 mps 744 mmHg 86%
    22:00 +5°C° 0.1 mm 6 mps 744 mmHg 82%
    23:00 +4°C° 0.1 mm 6 mps 745 mmHg 78%

    24 March, Sunday

    Time Temperature Precipitation Wind Pressure Humidity
    00:00 +3°C° 0 mm 6 mps 745 mmHg 77%
    01:00 +2°C° 0 mm 6 mps 745 mmHg 75%
    02:00 +1°C° 0 mm 6 mps 745 mmHg 73%
    03:00 +1°C° 0 mm 6 mps 745 mmHg 74%
    04:00 -1°C° 0 mm 6 mps 745 mmHg 74%
    05:00 -1°C° 0 mm 7 mps 745 mmHg 75%
    06:00 -1°C° 0 mm 7 mps 745 mmHg 70%
    07:00 -1°C° 0 mm 8 mps 745 mmHg 65%
    08:00 -1°C° 0 mm 9 mps 745 mmHg 60%
    09:00 0°C° 0 mm 9 mps 746 mmHg 55%
    10:00 +1°C° 0 mm 10 mps 746 mmHg 50%
    11:00 +2°C° 0 mm 10 mps 746 mmHg 45%
    12:00 +2°C° 0 mm 11 mps 746 mmHg 42%
    13:00 +3°C° 0 mm 11 mps 746 mmHg 39%
    14:00 +3°C° 0 mm 11 mps 745 mmHg 35%
    15:00 +3°C° 0 mm 10 mps 745 mmHg 37%
    16:00 +3°C° 0 mm 9 mps 745 mmHg 38%
    17:00 +2°C° 0 mm 8 mps 745 mmHg 39%
    18:00 +2°C° 0 mm 7 mps 746 mmHg 43%
    19:00 0°C° 0 mm 7 mps 746 mmHg 46%
    20:00 -1°C° 0 mm 6 mps 746 mmHg 50%
    21:00 0°C° 0 mm 5 mps 746 mmHg 53%
    22:00 -1°C° 0 mm 5 mps 746 mmHg 57%
    23:00 -1°C° 0 mm 4 mps 746 mmHg 60%

    25 March, Monday

    Time Temperature Precipitation Wind Pressure Humidity
    00:00 -1°C° 0 mm 4 mps 746 mmHg 63%
    01:00 -2°C° 0 mm 4 mps 745 mmHg 67%
    02:00 -1°C° 0 mm 3 mps 745 mmHg 70%
    03:00 -1°C° 0 mm 3 mps 744 mmHg 71%
    04:00 -1°C° 0 mm 3 mps 744 mmHg 71%
    05:00 -2°C° 0 mm 4 mps 743 mmHg 72%
    06:00 -1°C° 0 mm 4 mps 742 mmHg 68%
    07:00 -1°C° 0 mm 5 mps 742 mmHg 63%
    08:00 -1°C° 0 mm 6 mps 741 mmHg 59%
    09:00 +1°C° 0 mm 6 mps 740 mmHg 54%
    10:00 +2°C° 0 mm 7 mps 740 mmHg 50%
    11:00 +4°C° 0 mm 8 mps 739 mmHg 45%
    12:00 +4°C° 0 mm 8 mps 738 mmHg 46%
    13:00 +4°C° 0 mm 8 mps 737 mmHg 46%
    14:00 +4°C° 0 mm 8 mps 736 mmHg 47%
    15:00 +4°C° 0 mm 7 mps 735 mmHg 50%
    16:00 +4°C° 0 mm 7 mps 735 mmHg 52%
    17:00 +3°C° 0 mm 6 mps 734 mmHg 55%
    18:00 +3°C° 0.4 mm 6 mps 733 mmHg 61%
    19:00 +2°C° 0.4 mm 6 mps 733 mmHg 66%
    20:00 +2°C° 0.4 mm 6 mps 733 mmHg 72%
    21:00 +1°C° 0.1 mm 5 mps 732 mmHg 78%
    22:00 0°C° 0.1 mm 4 mps 732 mmHg 84%
    23:00 +1°C° 0.1 mm 2 mps 731 mmHg 89%
    Show more